Kuchera_Ratio
0.0 0.0 0.0 0.0 0.0 0.0 1.7 3.2 3.6 3.6 0.9 0.0 1.2 0.0 0.0 0.0 0.0 0.0 0.0 0.0 0.0 0.0 0.0 0.0 0.0 0.0 0.0 0.0 0.0 0.0 0.0 0.0 0.0 0.0 0.0 0.0 0.0 0.0
0.0 0.0 0.0 0.0 0.0 0.3 2.3 3.7 4.5 5.9 5.0 2.5 2.5 2.7 0.2 0.0 0.0 0.0 0.0 0.0 0.0 0.0 0.0 0.0 0.0 0.0 0.0 0.0 0.0 0.0 0.0 0.0 0.0 0.0 0.0 0.0 0.0 0.0
0.0 0.0 0.0 0.0 0.0 1.1 2.9 4.1 5.1 6.4 6.2 3.6 4.8 1.5 3.6 2.8 0.8 0.0 0.0 0.0 0.0 0.0 0.0 0.0 0.0 0.0 0.0 0.0 0.0 0.0 0.0 0.0 0.0 0.0 0.0 0.0 0.0 0.0
0.0 0.0 0.0 0.1 0.8 2.9 4.1 5.1 5.5 5.4 7.7 6.4 5.8 5.9 5.7 2.1 0.8 1.4 0.0 0.0 0.0 0.0 0.0 0.0 0.0 0.0 0.0 0.0 0.0 0.0 0.0 0.0 0.0 0.0 0.0 0.0 0.0 0.0
0.0 0.0 0.2 1.1 2.1 4.1 5.1 5.5 5.5 4.4 6.8 8.8 7.2 5.4 4.8 3.2 4.0 2.4 2.0 1.6 0.0 0.0 0.0 0.0 0.0 0.0 0.0 0.0 0.0 0.0 0.0 0.0 0.0 0.0 0.0 0.0 0.0 0.0
0.0 0.1 1.2 2.0 3.4 5.0 5.8 6.3 7.1 8.1 8.9 9.9 9.7 9.3 6.6 4.0 5.0 7.7 7.4 5.4 6.6 1.1 0.0 0.0 0.0 0.0 0.0 0.0 0.0 0.0 0.0 0.0 0.0 0.0 0.0 0.0 0.0 0.0
0.0 1.4 2.2 2.9 0.0 0.7 4.4 8.3 8.9 9.2 10.1 11.5 9.7 8.8 7.4 8.6 10.0 8.0 10.4 7.8 5.9 5.5 7.0 6.8 5.6 5.7 5.0 1.1 0.2 0.0 0.0 0.0 0.0 0.0 0.0 0.0 0.0 0.0
2.0 3.0 3.0 0.0 0.6 0.0 0.0 0.0 0.9 7.8 9.9 11.3 10.1 11.2 10.2 9.7 8.4 9.8 9.4 11.8 9.1 6.3 10.1 9.7 6.1 8.7 6.5 5.0 0.0 0.0 0.0 0.0 0.0 0.0 0.0 0.0 0.0 0.0
3.4 4.3 4.4 0.3 1.5 6.2 2.1 0.0 0.3 0.0 0.0 4.5 10.1 10.6 11.3 9.0 9.1 10.5 10.7 12.1 12.7 8.5 10.0 10.8 9.1 11.1 6.4 3.7 1.1 0.0 0.0 0.0 0.0 0.0 0.0 0.0 0.0 0.0
3.9 4.7 6.8 7.2 5.6 4.7 6.9 9.4 8.8 7.3 5.4 3.6 8.0 8.7 7.0 4.6 6.5 8.0 10.4 11.3 9.7 9.1 9.6 14.7 10.9 12.6 8.7 6.6 1.8 0.7 0.0 0.0 0.0 0.0 0.0 0.0 0.0 0.0
4.3 3.9 5.5 5.9 1.5 0.0 7.0 10.5 11.0 9.7 1.6 0.1 0.6 0.6 0.6 0.6 2.2 7.7 12.6 13.7 12.9 13.5 11.1 13.2 12.8 12.7 10.6 9.9 6.0 0.1 0.0 0.0 0.0 0.0 0.0 0.0 0.0 0.0
5.4 5.2 0.0 3.5 1.0 1.3 8.3 11.4 12.7 11.9 11.4 9.5 8.6 8.1 6.1 7.8 3.5 8.1 11.5 14.4 14.6 14.7 12.0 13.7 13.0 12.8 14.4 9.5 7.7 6.1 5.8 0.6 0.0 0.0 0.0 0.0 0.0 0.7
8.4 7.0 4.9 0.5 1.8 2.2 2.5 11.0 10.7 7.4 8.9 11.8 12.1 11.8 11.3 10.9 9.8 9.5 9.9 12.0 14.2 14.4 9.6 10.6 13.3 13.1 13.6 13.8 11.1 8.0 6.5 5.1 3.6 1.8 0.0 0.0 0.0 0.0
7.4 6.4 5.6 3.0 3.9 4.1 6.1 3.7 3.3 5.5 13.2 13.3 13.2 13.3 13.1 12.8 12.3 11.3 10.1 9.0 8.3 11.2 9.1 9.9 13.1 13.4 14.0 14.5 14.3 9.5 7.2 5.0 3.8 3.8 3.2 0.4 0.0 0.0
6.3 4.7 4.6 5.5 5.8 7.7 5.5 5.2 6.5 12.6 13.7 14.3 14.4 14.2 13.2 12.8 12.0 12.0 10.2 10.0 9.8 9.2 7.4 8.8 11.4 12.1 12.8 13.9 13.9 12.6 10.1 7.6 4.8 5.7 4.6 5.6 6.4 4.9
5.4 7.8 7.4 7.4 6.7 8.3 10.2 11.6 12.1 13.1 13.5 14.3 14.5 13.8 13.1 13.0 13.0 12.4 13.6 13.0 13.3 13.0 7.8 7.3 9.6 10.4 12.8 12.4 12.3 12.6 10.0 12.2 5.8 5.4 6.0 7.1 5.6 4.6
10.0 12.6 13.9 14.2 14.4 14.9 14.0 13.6 13.6 13.6 14.3 14.3 14.7 14.8 13.7 13.2 13.6 13.1 13.1 13.3 14.6 14.1 13.3 10.7 8.3 7.6 8.1 9.9 12.9 10.8 10.6 9.6 6.7 6.6 8.1 9.1 6.6 4.5
12.8 14.4 14.9 15.2 15.6 15.9 15.7 15.2 14.8 14.4 14.7 14.7 15.0 14.8 14.7 15.2 14.9 13.4 13.3 13.9 14.4 13.5 13.4 12.2 10.9 11.6 11.4 8.4 2.8 8.4 9.2 10.2 8.4 8.2 8.8 10.8 9.4 4.9
15.1 15.5 16.0 16.1 16.3 16.5 16.7 15.1 16.5 15.3 14.7 15.4 15.2 15.1 15.5 15.2 14.5 14.9 14.3 13.8 14.0 13.5 13.0 11.9 12.4 13.3 14.9 15.3 8.3 0.3 10.1 10.5 10.5 9.9 8.3 8.9 9.3 7.1
16.1 16.4 16.6 16.7 16.9 17.1 16.5 15.6 15.3 15.1 15.2 15.4 16.2 16.1 15.9 15.6 15.3 15.1 14.3 14.3 13.9 13.4 13.9 13.0 12.7 12.8 14.1 14.2 13.5 9.7 3.3 8.9 10.1 10.5 9.5 7.2 7.1 3.6
17.1 17.3 17.5 17.6 16.8 15.8 15.6 15.8 16.0 16.3 15.8 17.2 16.8 16.6 15.6 15.2 15.0 14.1 14.0 12.0 12.2 14.3 15.1 14.3 12.6 5.4 8.6 9.2 12.8 12.3 8.1 3.4 4.9 9.0 8.1 8.9 9.9 4.4
17.8 18.3 18.5 18.5 18.5 18.0 16.5 16.5 16.7 16.7 17.4 17.6 17.0 16.0 15.1 14.6 14.2 13.9 13.9 14.4 14.8 14.7 14.1 12.8 11.3 10.1 11.0 12.5 13.9 13.3 12.1 7.4 2.8 2.5 3.4 4.7 5.0 6.6
19.1 19.1 19.0 18.8 18.9 19.2 19.5 18.1 17.5 17.4 17.4 17.1 16.8 16.1 15.0 14.8 13.5 13.4 13.9 14.2 14.7 14.4 13.8 13.8 12.4 9.6 10.6 12.3 12.7 13.3 12.4 10.3 7.3 6.9 7.5 3.7 2.4 0.0